New York, NY

9:01 PM EST on November 21, 2019 (GMT -0500)
La Guardia

Weather History for KLGA - August, 2019

Change the Weather History Date:

Tuesday, August 13, 2019

  Actual Average Record
Temperature  
Mean Temperature 78 °F 77 °F  
Max Temperature 80 °F 84 °F 100 °F (2005)
Min Temperature 75 °F 70 °F 56 °F (1979)
Degree Days  
Heating Degree Days 0 0  
Month to date heating degree days 0 0  
Since 1 June heating degree days 4 16  
Since 1 July heating degree days 0 0  
Cooling Degree Days 13 12  
Month to date cooling degree days 183 160  
Year to date cooling degree days 1008 842  
Since 1 June cooling degree days 946 776  
Growing Degree Days 28 (Base 50)    
Moisture  
Dew Point 67 °F    
Average Humidity 70    
Maximum Humidity 82    
Minimum Humidity 58    
Precipitation  
Precipitation 0.02 in 0.13 in 4.12 in (1955)
Month to date precipitation 0.86 1.84  
Year to date precipitation 33.56 27.97  
Snow  
Snow 0.00 in 0.00 in - ()
Month to date snowfall 0.0 0.0  
Since 1 July snowfall 0.0 0.0  
Snow Depth 0.00 in    
Sea Level Pressure  
Sea Level Pressure 29.80 in    
Wind  
Wind Speed 7 mph (SSW)    
Max Wind Speed 18 mph    
Max Gust Speed 27 mph    
Visibility 10 miles    
Events Rain    
T = Trace of Precipitation, MM = Missing Value Source: NWS Daily Summary

Daily Weather History Graph

Daily Weather History Graph

Search for Another Location

Airport or City:

Astronomy

Aug. 13, 2019 Rise Set
Actual Time 6:03 AM EDT 7:56 PM EDT
Civil Twilight 5:33 AM EDT 8:26 PM EDT
Nautical Twilight 4:57 AM EDT 9:02 PM EDT
Astronomical Twilight 4:18 AM EDT 9:40 PM EDT
Moon 7:10 PM EDT (8/13) 4:02 AM EDT (8/13)
Length of Visible Light 14h 52m
Length of Day
13h 53m
Waxing Gibbous, 97% of the Moon is Illuminated
Aug 13
Waxing Gibbous
Aug 15
Full
Aug 23
Last Quarter
Aug 30
New
Sep 5
First Quarter

Hourly Weather History & Observations

Time (EDT) Temp. Heat Index Dew Point Humidity Pressure Visibility Wind Dir Wind Speed Gust Speed Precip Events Conditions
12:51 AM 79.0 °F - 63.0 °F 58% 29.86 in 10.0 mi SW 9.2 mph - N/A   Mostly Cloudy
1:51 AM 79.0 °F - 64.0 °F 60% 29.86 in 10.0 mi SSW 9.2 mph - N/A   Mostly Cloudy
2:51 AM 79.0 °F - 64.9 °F 62% 29.84 in 10.0 mi SW 10.4 mph - N/A   Overcast
3:51 AM 77.0 °F - 66.9 °F 71% 29.83 in 10.0 mi SW 12.7 mph - 0.00 in Rain Light Rain
4:51 AM 75.9 °F - 66.9 °F 74% 29.82 in 10.0 mi SSW 10.4 mph - 0.01 in   Overcast
5:51 AM 77.0 °F - 66.9 °F 71% 29.82 in 10.0 mi SW 8.1 mph - N/A   Overcast
6:51 AM 77.0 °F - 64.9 °F 66% 29.82 in 10.0 mi SSW 8.1 mph - N/A   Overcast
7:51 AM 77.0 °F - 66.0 °F 69% 29.82 in 10.0 mi SW 9.2 mph - 0.00 in Rain Light Rain
8:51 AM 77.0 °F - 66.0 °F 69% 29.81 in 10.0 mi SSW 6.9 mph - 0.00 in   Overcast
9:51 AM 78.1 °F - 66.0 °F 66% 29.81 in 10.0 mi SSW 10.4 mph - N/A   Overcast
10:51 AM 79.0 °F - 66.9 °F 66% 29.82 in 10.0 mi SSW 6.9 mph - N/A   Overcast
10:58 AM 79.0 °F - 66.9 °F 66% 29.82 in 10.0 mi WSW 5.8 mph - N/A   Overcast
11:51 AM 79.0 °F - 68.0 °F 69% 29.82 in 10.0 mi West 5.8 mph - N/A   Overcast
12:51 PM 77.0 °F - 64.0 °F 64% 29.83 in 9.0 mi NW 4.6 mph - 0.00 in Rain Light Rain
1:51 PM 75.9 °F - 69.1 °F 79% 29.81 in 10.0 mi North 6.9 mph - 0.01 in   Overcast
2:51 PM 77.0 °F - 68.0 °F 74% 29.78 in 10.0 mi NNE 5.8 mph - N/A   Overcast
3:51 PM 78.1 °F - 64.0 °F 62% 29.78 in 10.0 mi ENE 6.9 mph - N/A   Mostly Cloudy
4:51 PM 80.1 °F 82.1 °F 66.0 °F 62% 29.77 in 10.0 mi South 8.1 mph - N/A   Overcast
5:46 PM 78.8 °F - 68.0 °F 69% 29.76 in 10.0 mi SSE 11.5 mph 17.3 mph N/A   Mostly Cloudy
5:51 PM 80.1 °F 82.7 °F 68.0 °F 67% 29.76 in 10.0 mi South 9.2 mph 17.3 mph N/A   Mostly Cloudy
6:29 PM 80.1 °F 82.9 °F 69.1 °F 69% 29.77 in 10.0 mi SSE 9.2 mph - N/A   Mostly Cloudy
6:51 PM 77.0 °F - 69.1 °F 76% 29.77 in 10.0 mi South 10.4 mph - N/A   Mostly Cloudy
7:51 PM 75.9 °F - 69.1 °F 79% 29.76 in 10.0 mi South 9.2 mph - 0.00 in   Mostly Cloudy
8:51 PM 75.9 °F - 69.1 °F 79% 29.77 in 10.0 mi South 6.9 mph - N/A   Mostly Cloudy
9:51 PM 77.0 °F - 69.1 °F 76% 29.78 in 10.0 mi Variable 6.9 mph - N/A   Overcast
10:51 PM 77.0 °F - 69.1 °F 76% 29.78 in 10.0 mi Calm Calm - N/A   Overcast
11:51 PM 78.1 °F - 69.1 °F 74% 29.78 in 10.0 mi Calm Calm - N/A   Overcast